Zurück zum Katalog

ARIANE 5 R/B

AktivHEO
NORAD 54745·ROCKET BODY·🇫🇷 France

Gestartet Dec 13, 2022 von Guiana Space Centre

Loading…

Nächste Überflüge (nächste 24 Stunden)

TLE

AktuellSource: Space-Track

Epoche: Sep 14, 2026, 13:09 UTC

1 54745U 22170E   26257.54804015  .00037869  23138-6  14721-2 0  9999
2 54745   5.9400 260.5869 6769661  79.4594 344.8989  2.99548422 35750

Verfolge ARIANE 5 R/B in Echtzeit mit AllMySat

Download on the App Store